Time,TemperatureF,DewpointF,PressureIn,WindDirection,WindDirectionDegrees,WindSpeedMPH,WindSpeedGustMPH,Humidity,HourlyPrecipIn,Conditions,Clouds,dailyrainin,SolarRadiationWatts/m^2,SoftwareType,DateUTC
2013-04-12 00:14:00,51.2,46.0,29.86,SW,217,0.0,0.0,82,0.00,,,0.00,0,weatherlink.com 1.10,2013-04-12 07:14:00,
2013-04-12 00:29:00,50.7,45.0,29.86,SW,217,0.0,0.0,82,0.00,,,0.00,0,weatherlink.com 1.10,2013-04-12 07:29:00,
2013-04-12 00:44:00,50.2,45.0,29.86,SW,217,0.0,0.0,83,0.00,,,0.00,0,weatherlink.com 1.10,2013-04-12 07:44:00,
2013-04-12 00:59:00,49.8,45.0,29.87,SW,217,0.0,0.0,84,0.00,,,0.00,0,weatherlink.com 1.10,2013-04-12 07:59:00,
2013-04-12 01:14:00,49.3,45.0,29.87,SW,217,0.0,0.0,85,0.00,,,0.00,0,weatherlink.com 1.10,2013-04-12 08:14:00,
2013-04-12 01:29:00,48.9,45.0,29.87,SW,217,0.0,0.0,86,0.00,,,0.00,0,weatherlink.com 1.10,2013-04-12 08:29:00,
2013-04-12 01:44:00,48.5,45.0,29.88,SW,217,0.0,0.0,87,0.00,,,0.00,0,weatherlink.com 1.10,2013-04-12 08:44:00,
2013-04-12 01:59:00,48.1,44.0,29.87,SW,217,0.0,0.0,87,0.00,,,0.00,0,weatherlink.com 1.10,2013-04-12 08:59:00,
2013-04-12 02:14:00,47.8,45.0,29.87,SW,217,0.0,0.0,88,0.00,,,0.00,0,weatherlink.com 1.10,2013-04-12 09:14:00,
2013-04-12 02:29:00,47.6,44.0,29.87,SW,217,0.0,0.0,88,0.00,,,0.00,0,weatherlink.com 1.10,2013-04-12 09:29:00,
2013-04-12 02:44:00,47.3,44.0,29.87,SW,217,0.0,0.0,89,0.00,,,0.00,0,weatherlink.com 1.10,2013-04-12 09:44:00,
2013-04-12 02:59:00,47.1,44.0,29.86,SW,217,0.0,0.0,90,0.00,,,0.00,0,weatherlink.com 1.10,2013-04-12 09:59:00,
2013-04-12 03:14:00,46.9,44.0,29.86,SW,217,0.0,0.0,90,0.00,,,0.00,0,weatherlink.com 1.10,2013-04-12 10:14:00,
2013-04-12 03:29:00,46.9,45.0,29.86,SW,217,0.0,1.0,91,0.00,,,0.00,0,weatherlink.com 1.10,2013-04-12 10:29:00,
2013-04-12 03:44:00,46.5,44.0,29.86,SW,217,1.0,1.0,91,0.00,,,0.00,0,weatherlink.com 1.10,2013-04-12 10:44:00,
2013-04-12 03:59:00,46.6,44.0,29.86,SW,217,0.0,1.0,92,0.00,,,0.00,0,weatherlink.com 1.10,2013-04-12 10:59:00,
2013-04-12 04:29:00,46.3,44.0,29.86,SW,217,0.0,1.0,92,0.00,,,0.00,0,weatherlink.com 1.10,2013-04-12 11:29:00,
2013-04-12 04:44:00,46.2,44.0,29.86,SW,217,0.0,1.0,93,0.00,,,0.00,0,weatherlink.com 1.10,2013-04-12 11:44:00,
2013-04-12 04:59:00,46.2,44.0,29.86,SW,217,0.0,1.0,93,0.00,,,0.00,0,weatherlink.com 1.10,2013-04-12 11:59:00,
2013-04-12 05:14:00,46.2,44.0,29.86,SW,217,0.0,1.0,93,0.00,,,0.00,0,weatherlink.com 1.10,2013-04-12 12:14:00,
2013-04-12 05:29:00,46.1,44.0,29.86,SW,217,0.0,1.0,93,0.00,,,0.00,0,weatherlink.com 1.10,2013-04-12 12:29:00,
2013-04-12 05:44:00,46.0,44.0,29.86,SW,217,0.0,0.0,93,0.00,,,0.00,0,weatherlink.com 1.10,2013-04-12 12:44:00,
2013-04-12 05:59:00,45.8,44.0,29.86,SW,217,0.0,0.0,93,0.00,,,0.00,0,weatherlink.com 1.10,2013-04-12 12:59:00,
2013-04-12 06:14:00,45.6,44.0,29.86,SW,217,0.0,0.0,93,0.00,,,0.00,0,weatherlink.com 1.10,2013-04-12 13:14:00,
2013-04-12 06:29:00,45.6,44.0,29.87,SW,217,0.0,0.0,93,0.00,,,0.00,0,weatherlink.com 1.10,2013-04-12 13:29:00,
2013-04-12 06:44:00,45.6,44.0,29.87,SW,217,0.0,0.0,93,0.00,,,0.00,5,weatherlink.com 1.10,2013-04-12 13:44:00,
2013-04-12 06:59:00,45.8,44.0,29.88,SW,217,0.0,0.0,94,0.00,,,0.00,18,weatherlink.com 1.10,2013-04-12 13:59:00,
2013-04-12 07:14:00,46.0,44.0,29.88,SW,217,0.0,0.0,94,0.00,,,0.00,30,weatherlink.com 1.10,2013-04-12 14:14:00,
2013-04-12 07:29:00,46.3,45.0,29.89,SW,217,0.0,1.0,94,0.00,,,0.00,42,weatherlink.com 1.10,2013-04-12 14:29:00,
2013-04-12 07:44:00,46.9,45.0,29.90,SW,217,0.0,0.0,94,0.00,,,0.00,160,weatherlink.com 1.10,2013-04-12 14:44:00,
2013-04-12 08:00:00,48.5,48.0,29.90,SW,217,0.0,0.0,96,0.00,,,0.00,218,weatherlink.com 1.10,2013-04-12 15:00:00,
2013-04-12 08:15:00,50.5,49.0,29.90,SW,217,1.0,1.0,95,0.00,,,0.00,274,weatherlink.com 1.10,2013-04-12 15:15:00,
2013-04-12 08:29:00,52.1,50.0,29.90,SW,217,0.0,1.0,92,0.00,,,0.00,169,weatherlink.com 1.10,2013-04-12 15:29:00,
2013-04-12 08:45:00,53.1,50.0,29.90,SW,217,0.0,1.0,89,0.00,,,0.00,396,weatherlink.com 1.10,2013-04-12 15:45:00,
2013-04-12 09:00:00,54.7,51.0,29.90,SSW,205,1.0,1.0,86,0.00,,,0.00,452,weatherlink.com 1.10,2013-04-12 16:00:00,
2013-04-12 09:15:00,56.8,51.0,29.90,South,184,0.0,1.0,81,0.00,,,0.00,503,weatherlink.com 1.10,2013-04-12 16:15:00,
2013-04-12 09:30:00,59.3,52.0,29.90,South,184,0.0,1.0,78,0.00,,,0.00,554,weatherlink.com 1.10,2013-04-12 16:30:00,
2013-04-12 09:45:00,61.9,54.0,29.90,South,184,0.0,1.0,76,0.00,,,0.00,601,weatherlink.com 1.10,2013-04-12 16:45:00,
2013-04-12 10:00:00,64.0,53.0,29.90,SSW,200,0.0,2.0,68,0.00,,,0.00,642,weatherlink.com 1.10,2013-04-12 17:00:00,
2013-04-12 10:15:00,65.0,52.0,29.90,SSW,200,0.0,2.0,62,0.00,,,0.00,686,weatherlink.com 1.10,2013-04-12 17:15:00,
2013-04-12 10:30:00,65.9,52.0,29.90,NE,41,0.0,2.0,61,0.00,,,0.00,726,weatherlink.com 1.10,2013-04-12 17:30:00,
2013-04-12 10:46:00,67.1,53.0,29.90,WNW,284,0.0,3.0,61,0.00,,,0.00,758,weatherlink.com 1.10,2013-04-12 17:46:00,
2013-04-12 12:31:00,72.3,54.0,29.88,West,259,0.0,2.0,53,0.00,,,0.00,882,weatherlink.com 1.10,2013-04-12 19:31:00,
2013-04-12 13:01:00,72.0,54.0,29.87,West,264,0.0,3.0,54,0.00,,,0.00,886,weatherlink.com 1.10,2013-04-12 20:01:00,
2013-04-12 13:16:00,71.7,53.0,29.87,West,266,2.0,4.0,52,0.00,,,0.00,613,weatherlink.com 1.10,2013-04-12 20:16:00,
2013-04-12 13:31:00,72.2,53.0,29.87,West,273,5.0,6.0,52,0.00,,,0.00,199,weatherlink.com 1.10,2013-04-12 20:31:00,
2013-04-12 13:46:00,71.2,52.0,29.87,West,273,2.0,5.0,50,0.00,,,0.00,338,weatherlink.com 1.10,2013-04-12 20:46:00,
2013-04-12 14:01:00,70.9,48.0,29.86,West,268,3.0,5.0,45,0.00,,,0.00,214,weatherlink.com 1.10,2013-04-12 21:01:00,
2013-04-12 14:16:00,70.6,48.0,29.86,West,269,1.0,5.0,45,0.00,,,0.00,76,weatherlink.com 1.10,2013-04-12 21:16:00,
2013-04-12 14:31:00,71.0,48.0,29.85,West,271,2.0,4.0,44,0.00,,,0.00,104,weatherlink.com 1.10,2013-04-12 21:31:00,
2013-04-12 14:46:00,71.6,47.0,29.85,West,263,0.0,4.0,42,0.00,,,0.00,165,weatherlink.com 1.10,2013-04-12 21:46:00,
2013-04-12 15:16:00,72.5,47.0,29.84,West,281,1.0,7.0,40,0.00,,,0.00,84,weatherlink.com 1.10,2013-04-12 22:16:00,
2013-04-12 15:31:00,71.7,44.0,29.84,West,273,3.0,7.0,37,0.00,,,0.00,70,weatherlink.com 1.10,2013-04-12 22:31:00,
2013-04-12 15:46:00,71.1,43.0,29.84,West,276,4.0,7.0,37,0.00,,,0.00,56,weatherlink.com 1.10,2013-04-12 22:46:00,
2013-04-12 16:01:00,70.5,42.0,29.84,West,265,5.0,7.0,36,0.00,,,0.00,39,weatherlink.com 1.10,2013-04-12 23:01:00,
2013-04-12 16:16:00,70.2,44.0,29.84,West,279,3.0,5.0,39,0.00,,,0.00,49,weatherlink.com 1.10,2013-04-12 23:16:00,
2013-04-12 16:31:00,70.2,45.0,29.84,West,275,3.0,6.0,40,0.00,,,0.00,54,weatherlink.com 1.10,2013-04-12 23:31:00,
2013-04-12 16:46:00,69.6,48.0,29.84,West,276,4.0,5.0,46,0.00,,,0.00,54,weatherlink.com 1.10,2013-04-12 23:46:00,
2013-04-12 17:01:00,69.0,49.0,29.84,West,276,1.0,4.0,50,0.00,,,0.00,58,weatherlink.com 1.10,2013-04-13 00:01:00,
2013-04-12 17:16:00,68.8,48.0,29.83,West,267,0.0,2.0,48,0.00,,,0.00,56,weatherlink.com 1.10,2013-04-13 00:16:00,
2013-04-12 17:31:00,68.7,48.0,29.83,WSW,247,0.0,2.0,48,0.00,,,0.00,44,weatherlink.com 1.10,2013-04-13 00:31:00,
2013-04-12 17:46:00,68.4,47.0,29.83,WSW,246,0.0,3.0,47,0.00,,,0.00,37,weatherlink.com 1.10,2013-04-13 00:46:00,
2013-04-12 18:01:00,68.0,47.0,29.83,WSW,246,0.0,1.0,48,0.00,,,0.00,32,weatherlink.com 1.10,2013-04-13 01:01:00,
2013-04-12 18:16:00,67.6,47.0,29.83,WSW,246,0.0,1.0,48,0.00,,,0.00,37,weatherlink.com 1.10,2013-04-13 01:16:00,
2013-04-12 18:31:00,67.2,47.0,29.82,WSW,246,0.0,0.0,49,0.00,,,0.00,28,weatherlink.com 1.10,2013-04-13 01:31:00,
2013-04-12 18:46:00,66.8,47.0,29.82,WSW,246,0.0,0.0,49,0.00,,,0.00,26,weatherlink.com 1.10,2013-04-13 01:46:00,
2013-04-12 19:01:00,66.3,47.0,29.82,WSW,246,0.0,0.0,50,0.00,,,0.00,19,weatherlink.com 1.10,2013-04-13 02:01:00,
2013-04-12 19:31:00,65.0,45.0,29.82,WSW,246,0.0,0.0,48,0.00,,,0.00,5,weatherlink.com 1.10,2013-04-13 02:31:00,
2013-04-12 19:46:00,64.2,43.0,29.82,WSW,246,0.0,0.0,47,0.00,,,0.00,0,weatherlink.com 1.10,2013-04-13 02:46:00,
2013-04-12 20:01:00,63.2,44.0,29.82,SE,135,0.0,2.0,50,0.00,,,0.00,0,weatherlink.com 1.10,2013-04-13 03:01:00,
2013-04-12 20:31:00,60.7,47.0,29.83,NNE,21,2.0,4.0,60,0.00,,,0.00,0,weatherlink.com 1.10,2013-04-13 03:31:00,
2013-04-12 20:46:00,59.2,46.0,29.84,NNW,331,0.0,1.0,63,0.00,,,0.00,0,weatherlink.com 1.10,2013-04-13 03:46:00,
2013-04-12 21:01:00,57.9,46.0,29.84,NNW,331,0.0,1.0,65,0.00,,,0.00,0,weatherlink.com 1.10,2013-04-13 04:01:00,
2013-04-12 21:16:00,56.7,46.0,29.85,NNW,342,0.0,1.0,68,0.00,,,0.00,0,weatherlink.com 1.10,2013-04-13 04:16:00,
2013-04-12 21:31:00,55.7,46.0,29.86,NNW,342,0.0,0.0,69,0.00,,,0.00,0,weatherlink.com 1.10,2013-04-13 04:31:00,
2013-04-12 21:47:00,54.9,46.0,29.86,NNW,342,0.0,0.0,71,0.00,,,0.00,0,weatherlink.com 1.10,2013-04-13 04:47:00,
2013-04-12 22:01:00,54.0,46.0,29.86,NNW,342,0.0,0.0,73,0.00,,,0.00,0,weatherlink.com 1.10,2013-04-13 05:01:00,
2013-04-12 22:16:00,53.1,45.0,29.87,NNW,342,0.0,0.0,75,0.00,,,0.00,0,weatherlink.com 1.10,2013-04-13 05:16:00,
2013-04-12 22:31:00,52.4,45.0,29.87,NNW,342,0.0,0.0,76,0.00,,,0.00,0,weatherlink.com 1.10,2013-04-13 05:31:00,
2013-04-12 22:48:00,51.7,45.0,29.87,NNW,342,0.0,0.0,77,0.00,,,0.00,0,weatherlink.com 1.10,2013-04-13 05:48:00,
2013-04-12 23:01:00,51.2,45.0,29.87,NNW,342,0.0,0.0,79,0.00,,,0.00,0,weatherlink.com 1.10,2013-04-13 06:01:00,
2013-04-12 23:17:00,50.7,45.0,29.87,NNW,342,0.0,0.0,80,0.00,,,0.00,0,weatherlink.com 1.10,2013-04-13 06:17:00,
2013-04-12 23:46:00,49.7,45.0,29.87,NNW,342,0.0,0.0,83,0.00,,,0.00,0,weatherlink.com 1.10,2013-04-13 06:46:00,